SJV874 WIII-WIPP

Flight info

Callsign SJV874
Flight time 0h 38m
Altitude 30000
Route DOLTA W12 GUSKO
Aircraft A320/M-SDE3FGHIRWY/LB1

Departure

Time 2026-05-05 13:56
Airport Soekarno-Hatta International Airport (WIII)

Arrival

Time 2026-05-05 14:35
Airport Sultan Mahmud Badaruddin II Airport (WIPP)
Time Latitude Longitude Altitude Speed Heading
2026-05-05 13:32 -6.11949 106.65171 0 ft 0 kts 191°
2026-05-05 13:45 -6.11947 106.65171 0 ft 3 kts 191°
2026-05-05 13:45 -6.11923 106.65181 29 ft 4 kts 216°
2026-05-05 13:45 -6.11904 106.65189 35 ft 3 kts 156°
2026-05-05 13:46 -6.11884 106.65175 37 ft 4 kts 106°
2026-05-05 13:46 -6.11886 106.65151 33 ft 3 kts 68°
2026-05-05 13:46 -6.11888 106.65147 34 ft 0 kts 68°
2026-05-05 13:48 -6.11886 106.65152 33 ft 2 kts 68°
2026-05-05 13:49 -6.11879 106.65170 36 ft 4 kts 68°
2026-05-05 13:49 -6.11864 106.65199 37 ft 6 kts 52°
2026-05-05 13:49 -6.11823 106.65220 38 ft 8 kts 10°
2026-05-05 13:49 -6.11765 106.65224 38 ft 9 kts 20°
2026-05-05 13:50 -6.11729 106.65281 38 ft 11 kts 68°
2026-05-05 13:50 -6.11699 106.65358 38 ft 13 kts 68°
2026-05-05 13:50 -6.11663 106.65448 37 ft 15 kts 68°
2026-05-05 13:50 -6.11621 106.65555 37 ft 18 kts 68°
2026-05-05 13:51 -6.11572 106.65676 37 ft 20 kts 68°
2026-05-05 13:51 -6.11519 106.65810 37 ft 22 kts 67°
2026-05-05 13:51 -6.11460 106.65957 36 ft 24 kts 68°
2026-05-05 13:51 -6.11397 106.66114 38 ft 25 kts 69°
2026-05-05 13:52 -6.11331 106.66282 38 ft 27 kts 68°
2026-05-05 13:52 -6.11259 106.66459 38 ft 28 kts 68°
2026-05-05 13:52 -6.11185 106.66647 37 ft 30 kts 68°
2026-05-05 13:52 -6.11119 106.66808 36 ft 24 kts 68°
2026-05-05 13:53 -6.11070 106.66925 37 ft 16 kts 60°
2026-05-05 13:53 -6.11003 106.66966 37 ft 7 kts
2026-05-05 13:53 -6.10957 106.66939 37 ft 7 kts 310°
2026-05-05 13:53 -6.10940 106.66920 36 ft 5 kts 311°
2026-05-05 13:54 -6.10914 106.66897 36 ft 3 kts 322°
2026-05-05 13:54 -6.10900 106.66877 36 ft 4 kts 284°
2026-05-05 13:54 -6.10907 106.66858 36 ft 1 kts 247°
2026-05-05 13:54 -6.10914 106.66842 35 ft 4 kts 247°
2026-05-05 13:55 -6.10918 106.66833 35 ft 2 kts 247°
2026-05-05 13:55 -6.10963 106.66721 36 ft 49 kts 248°
2026-05-05 13:55 -6.11170 106.66200 38 ft 109 kts 248°
2026-05-05 13:55 -6.11513 106.65341 35 ft 153 kts 248°
2026-05-05 13:56 -6.11945 106.64261 317 ft 169 kts 247°
2026-05-05 13:56 -6.12386 106.63161 881 ft 172 kts 247°
2026-05-05 13:56 -6.12732 106.62006 1485 ft 176 kts 269°
2026-05-05 13:56 -6.12439 106.60775 1884 ft 192 kts 288°
2026-05-05 13:57 -6.11928 106.59444 2037 ft 216 kts 290°
2026-05-05 13:57 -6.11358 106.57963 2341 ft 235 kts 289°
2026-05-05 13:57 -6.10789 106.56418 3123 ft 237 kts 289°
2026-05-05 13:57 -6.10227 106.54856 3939 ft 239 kts 288°
2026-05-05 13:58 -6.09665 106.53268 4675 ft 243 kts 288°
2026-05-05 13:58 -6.09097 106.51652 5429 ft 247 kts 288°
2026-05-05 13:58 -6.08497 106.50017 6190 ft 251 kts 294°
2026-05-05 13:58 -6.07558 106.48551 6894 ft 256 kts 311°
2026-05-05 13:59 -6.04678 106.46435 8427 ft 260 kts 330°
2026-05-05 13:59 -6.03124 106.45491 9213 ft 261 kts 329°
2026-05-05 14:00 -5.99898 106.43441 10077 ft 295 kts 328°
2026-05-05 14:00 -5.98702 106.42678 10259 ft 309 kts 328°
2026-05-05 14:00 -5.96179 106.41073 10563 ft 336 kts 328°
2026-05-05 14:00 -5.94181 106.39810 11126 ft 343 kts 328°
2026-05-05 14:01 -5.92144 106.38528 11758 ft 347 kts 328°
2026-05-05 14:01 -5.90785 106.37676 12186 ft 349 kts 328°
2026-05-05 14:01 -5.88003 106.35940 13021 ft 354 kts 329°
2026-05-05 14:01 -5.85896 106.34626 13636 ft 358 kts 329°
2026-05-05 14:02 -5.84491 106.33759 14031 ft 360 kts 329°
2026-05-05 14:02 -5.82329 106.32479 14610 ft 363 kts 331°
2026-05-05 14:02 -5.80130 106.31223 15176 ft 366 kts 332°
2026-05-05 14:02 -5.77896 106.29966 15746 ft 369 kts 332°
2026-05-05 14:03 -5.75644 106.28704 16305 ft 372 kts 332°
2026-05-05 14:03 -5.73374 106.27430 16842 ft 375 kts 332°
2026-05-05 14:03 -5.71117 106.26152 17371 ft 378 kts 332°
2026-05-05 14:03 -5.68825 106.24838 17897 ft 381 kts 332°
2026-05-05 14:04 -5.66519 106.23507 18414 ft 384 kts 331°
2026-05-05 14:04 -5.64193 106.22164 18900 ft 388 kts 331°
2026-05-05 14:04 -5.61843 106.20807 19368 ft 391 kts 331°
2026-05-05 14:04 -5.59471 106.19439 19851 ft 395 kts 331°
2026-05-05 14:05 -5.57077 106.18058 20328 ft 398 kts 331°
2026-05-05 14:05 -5.54668 106.16670 20785 ft 401 kts 332°
2026-05-05 14:05 -5.52228 106.15267 21228 ft 405 kts 332°
2026-05-05 14:05 -5.49774 106.13858 21651 ft 408 kts 332°
2026-05-05 14:06 -5.47304 106.12438 22074 ft 411 kts 332°
2026-05-05 14:06 -5.44818 106.11009 22477 ft 414 kts 332°
2026-05-05 14:06 -5.42308 106.09565 22892 ft 417 kts 332°
2026-05-05 14:06 -5.39784 106.08111 23301 ft 420 kts 332°
2026-05-05 14:07 -5.37246 106.06651 23689 ft 422 kts 332°
2026-05-05 14:07 -5.34682 106.05184 24081 ft 425 kts 332°
2026-05-05 14:07 -5.32100 106.03703 24445 ft 428 kts 332°
2026-05-05 14:07 -5.29521 106.02221 24818 ft 431 kts 332°
2026-05-05 14:08 -5.26902 106.00713 25198 ft 433 kts 332°
2026-05-05 14:08 -5.24284 105.99208 25576 ft 435 kts 332°
2026-05-05 14:08 -5.21654 105.97696 25934 ft 437 kts 331°
2026-05-05 14:08 -5.19011 105.96174 26296 ft 439 kts 331°
2026-05-05 14:09 -5.16389 105.94665 26636 ft 441 kts 331°
2026-05-05 14:09 -5.13726 105.93135 27038 ft 441 kts 331°
2026-05-05 14:09 -5.11056 105.91608 27424 ft 442 kts 331°
2026-05-05 14:09 -5.08382 105.90086 27772 ft 443 kts 331°
2026-05-05 14:10 -5.05694 105.88559 28112 ft 445 kts 331°
2026-05-05 14:10 -5.02995 105.87027 28450 ft 447 kts 331°
2026-05-05 14:10 -5.00284 105.85484 28771 ft 449 kts 331°
2026-05-05 14:10 -4.97564 105.83937 29098 ft 451 kts 331°
2026-05-05 14:11 -4.94831 105.82381 29422 ft 453 kts 331°
2026-05-05 14:11 -4.92085 105.80815 29731 ft 455 kts 330°
2026-05-05 14:11 -4.89331 105.79242 29868 ft 454 kts 330°
2026-05-05 14:11 -4.86618 105.77697 29899 ft 447 kts 330°
2026-05-05 14:12 -4.83882 105.76139 29892 ft 458 kts 330°
2026-05-05 14:12 -4.81089 105.74550 29894 ft 467 kts 330°
2026-05-05 14:12 -4.75334 105.71276 29891 ft 480 kts 330°
2026-05-05 14:13 -4.69543 105.67979 29896 ft 483 kts 330°
2026-05-05 14:13 -4.63702 105.64655 29890 ft 483 kts 330°
2026-05-05 14:14 -4.57853 105.61321 29897 ft 485 kts 331°
2026-05-05 14:14 -4.51960 105.57967 29888 ft 487 kts 331°
2026-05-05 14:15 -4.46061 105.54614 29885 ft 488 kts 331°
2026-05-05 14:15 -4.40197 105.51280 29869 ft 472 kts 331°
2026-05-05 14:16 -4.37374 105.49675 29373 ft 465 kts 331°
2026-05-05 14:16 -4.34546 105.48067 28508 ft 468 kts 331°
2026-05-05 14:16 -4.31706 105.46455 28035 ft 473 kts 331°
2026-05-05 14:16 -4.28794 105.44804 27545 ft 487 kts 331°
2026-05-05 14:17 -4.25838 105.43126 27040 ft 490 kts 331°
2026-05-05 14:17 -4.22872 105.41437 26529 ft 489 kts 331°
2026-05-05 14:17 -4.19891 105.39741 26013 ft 495 kts 332°
2026-05-05 14:17 -4.16893 105.38038 25478 ft 495 kts 332°
2026-05-05 14:18 -4.13902 105.36341 24930 ft 497 kts 332°
2026-05-05 14:18 -4.10875 105.34623 24359 ft 499 kts 332°
2026-05-05 14:18 -4.07902 105.32933 23798 ft 497 kts 332°
2026-05-05 14:18 -4.04907 105.31230 23220 ft 493 kts 332°
2026-05-05 14:19 -4.01934 105.29539 22650 ft 489 kts 332°
2026-05-05 14:19 -3.98990 105.27862 22077 ft 485 kts 332°
2026-05-05 14:19 -3.96071 105.26203 21502 ft 480 kts 332°
2026-05-05 14:19 -3.93176 105.24562 20941 ft 476 kts 332°
2026-05-05 14:20 -3.90309 105.22941 20370 ft 472 kts 332°
2026-05-05 14:20 -3.87455 105.21334 19818 ft 468 kts 332°
2026-05-05 14:20 -3.84624 105.19744 19264 ft 464 kts 332°
2026-05-05 14:20 -3.81821 105.18172 18806 ft 461 kts 332°
2026-05-05 14:21 -3.79040 105.16612 18249 ft 457 kts 332°
2026-05-05 14:21 -3.76273 105.15060 17709 ft 453 kts 332°
2026-05-05 14:21 -3.73575 105.13545 17178 ft 449 kts 332°
2026-05-05 14:21 -3.70859 105.12018 16646 ft 446 kts 332°
2026-05-05 14:22 -3.68164 105.10504 16121 ft 443 kts 332°
2026-05-05 14:22 -3.65488 105.09000 15598 ft 440 kts 332°
2026-05-05 14:22 -3.62826 105.07503 15074 ft 436 kts 332°
2026-05-05 14:22 -3.60191 105.06021 14559 ft 433 kts 331°
2026-05-05 14:23 -3.57570 105.04549 14045 ft 430 kts 331°
2026-05-05 14:23 -3.54971 105.03092 13539 ft 426 kts 331°
2026-05-05 14:23 -3.52376 105.01685 13025 ft 423 kts 336°
2026-05-05 14:23 -3.49608 105.00758 12507 ft 418 kts 344°
2026-05-05 14:24 -3.46820 104.99954 11973 ft 415 kts 344°
2026-05-05 14:24 -3.44060 104.99167 11456 ft 410 kts 344°
2026-05-05 14:24 -3.41325 104.98391 10929 ft 407 kts 344°
2026-05-05 14:24 -3.38618 104.97624 10493 ft 398 kts 344°
2026-05-05 14:25 -3.36013 104.96886 10356 ft 379 kts 344°
2026-05-05 14:25 -3.33542 104.96185 10229 ft 361 kts 344°
2026-05-05 14:25 -3.31210 104.95524 10101 ft 343 kts 344°
2026-05-05 14:25 -3.28997 104.94895 9973 ft 318 kts 343°
2026-05-05 14:26 -3.26941 104.94309 9763 ft 299 kts 343°
2026-05-05 14:26 -3.24967 104.93743 9278 ft 292 kts 343°
2026-05-05 14:26 -3.23027 104.93186 8717 ft 289 kts 343°
2026-05-05 14:26 -3.21101 104.92635 8142 ft 286 kts 343°
2026-05-05 14:27 -3.19194 104.92090 7569 ft 284 kts 343°
2026-05-05 14:27 -3.17350 104.91564 7019 ft 282 kts 343°
2026-05-05 14:27 -3.15461 104.91024 6381 ft 282 kts 343°
2026-05-05 14:27 -3.13563 104.90481 5757 ft 282 kts 343°
2026-05-05 14:28 -3.11694 104.89948 5363 ft 276 kts 343°
2026-05-05 14:28 -3.09875 104.89434 5013 ft 266 kts 345°
2026-05-05 14:28 -3.09032 104.89274 4857 ft 262 kts 354°
2026-05-05 14:28 -3.07244 104.89340 4527 ft 255 kts 12°
2026-05-05 14:29 -3.05576 104.89904 4184 ft 253 kts 23°
2026-05-05 14:29 -3.03964 104.90581 3832 ft 248 kts 19°
2026-05-05 14:29 -3.02306 104.90893 3517 ft 239 kts
2026-05-05 14:29 -3.00701 104.90690 3202 ft 229 kts 342°
2026-05-05 14:30 -2.99291 104.90048 2992 ft 217 kts 326°
2026-05-05 14:30 -2.98182 104.89091 2976 ft 207 kts 310°
2026-05-05 14:30 -2.97389 104.87931 2978 ft 204 kts 295°
2026-05-05 14:30 -2.96828 104.86631 2981 ft 204 kts 292°
2026-05-05 14:31 -2.96278 104.85322 2949 ft 205 kts 292°
2026-05-05 14:31 -2.95727 104.84013 2762 ft 204 kts 292°
2026-05-05 14:31 -2.95178 104.82707 2507 ft 203 kts 292°
2026-05-05 14:31 -2.94634 104.81413 2270 ft 199 kts 292°
2026-05-05 14:32 -2.94110 104.80167 1991 ft 188 kts 292°
2026-05-05 14:32 -2.93619 104.79002 1749 ft 174 kts 292°
2026-05-05 14:32 -2.93177 104.77951 1530 ft 156 kts 292°
2026-05-05 14:32 -2.92767 104.76976 1327 ft 149 kts 292°
2026-05-05 14:33 -2.92368 104.76027 1134 ft 146 kts 292°
2026-05-05 14:33 -2.91973 104.75095 932 ft 145 kts 292°
2026-05-05 14:33 -2.91584 104.74165 737 ft 144 kts 293°
2026-05-05 14:33 -2.91195 104.73242 560 ft 144 kts 292°
2026-05-05 14:34 -2.90813 104.72330 367 ft 144 kts 292°
2026-05-05 14:34 -2.90428 104.71409 142 ft 143 kts 292°
2026-05-05 14:34 -2.90044 104.70502 25 ft 132 kts 293°
2026-05-05 14:34 -2.89750 104.69799 19 ft 85 kts 292°
2026-05-05 14:35 -2.89587 104.69413 13 ft 36 kts 292°
2026-05-05 14:35 -2.89527 104.69270 16 ft 11 kts 294°
2026-05-05 14:35 -2.89467 104.69231 16 ft 9 kts
2026-05-05 14:35 -2.89438 104.69241 16 ft 4 kts 19°
2026-05-05 14:36 -2.89403 104.69254 18 ft 6 kts 22°
2026-05-05 14:36 -2.89367 104.69277 18 ft 6 kts 49°
2026-05-05 14:36 -2.89365 104.69313 19 ft 6 kts 112°
2026-05-05 14:36 -2.89385 104.69358 21 ft 8 kts 112°
2026-05-05 14:37 -2.89409 104.69415 19 ft 10 kts 113°
2026-05-05 14:37 -2.89440 104.69489 20 ft 13 kts 112°
2026-05-05 14:37 -2.89478 104.69584 18 ft 16 kts 111°
2026-05-05 14:37 -2.89526 104.69695 21 ft 18 kts 113°
2026-05-05 14:38 -2.89578 104.69818 19 ft 20 kts 113°
2026-05-05 14:38 -2.89637 104.69956 19 ft 22 kts 113°
2026-05-05 14:38 -2.89690 104.70084 23 ft 14 kts 112°
2026-05-05 14:38 -2.89724 104.70170 24 ft 10 kts 108°
2026-05-05 14:39 -2.89698 104.70225 27 ft 9 kts 27°
2026-05-05 14:39 -2.89655 104.70269 26 ft 9 kts 76°
2026-05-05 14:39 -2.89665 104.70327 26 ft 8 kts 112°
2026-05-05 14:39 -2.89686 104.70381 29 ft 4 kts 111°
2026-05-05 14:40 -2.89680 104.70408 28 ft 5 kts 45°
2026-05-05 14:40 -2.89663 104.70415 29 ft 1 kts 23°
2026-05-05 14:40 -2.89649 104.70421 29 ft 3 kts 23°
2026-05-05 14:40 -2.89624 104.70432 28 ft 1 kts 24°
2026-05-05 14:41 -2.89613 104.70437 29 ft 1 kts 24°
2026-05-05 14:41 -2.89608 104.70439 29 ft 1 kts 24°
2026-05-05 14:41 -2.89607 104.70439 29 ft 0 kts 24°